Alma, MI

10:13 PM EST on January 17, 2018 (GMT -0500)
Gratiot Community

Weather History for KAMN - November, 2012

Change the Weather History Date:

Sunday, November 25, 2012

  Actual Average Record
Temperature  
Mean Temperature 30 °F -  
Max Temperature 34 °F 39 °F 57 °F (2001)
Min Temperature 26 °F 25 °F 0 °F (1950)
Degree Days  
Heating Degree Days 35    
Moisture  
Dew Point 26 °F    
Average Humidity 84    
Maximum Humidity 96    
Minimum Humidity 70    
Precipitation  
Precipitation 0.00 in - - ()
Sea Level Pressure  
Sea Level Pressure 29.88 in    
Wind  
Wind Speed 7 mph (SW)    
Max Wind Speed 12 mph    
Max Gust Speed 16 mph    
Visibility 8 miles    
Events Snow    
Averages and records for this station are not official NWS values.
T = Trace of Precipitation, MM = Missing Value Source: NWS Daily Summary

Daily Weather History Graph

Daily Weather History Graph

Search for Another Location

Airport or City:

Trip Planner

Search our weather history database for the weather conditions in past years. The results will help you decide how hot, cold, wet, or windy it might be!

Date:

Astronomy

Nov. 25, 2012 Rise Set
Actual Time 7:44 AM EST 5:06 PM EST
Civil Twilight 7:13 AM EST 5:38 PM EST
Nautical Twilight 6:38 AM EST 6:13 PM EST
Astronomical Twilight 6:04 AM EST 6:47 PM EST
Moon 3:25 PM EST (11/25) 4:54 AM EST (11/25)
Length of Visible Light 10h 24m
Length of Day
9h 21m
Waxing Gibbous, 93% of the Moon is Illuminated
Nov 25
Waxing Gibbous
Nov 28
Full
Dec 6
Last Quarter
Dec 13
New
Dec 20
First Quarter

Hourly Weather History & Observations

Time (EST) Temp. Windchill Dew Point Humidity Pressure Visibility Wind Dir Wind Speed Gust Speed Precip Events Conditions
12:14 AM 28.9 °F 25.2 °F 20.3 °F 70% 29.98 in 10.0 mi South 3.5 mph - N/A   Overcast
12:34 AM 29.1 °F 24.1 °F 20.7 °F 71% 29.99 in 10.0 mi SSW 4.6 mph - N/A   Overcast
12:54 AM 29.1 °F 24.1 °F 21.4 °F 73% 29.97 in 10.0 mi South 4.6 mph - N/A   Overcast
1:14 AM 29.3 °F 23.2 °F 22.1 °F 75% 29.96 in 10.0 mi South 5.8 mph - N/A   Overcast
1:34 AM 29.7 °F 22.8 °F 22.1 °F 73% 29.95 in 10.0 mi SSW 6.9 mph - N/A   Overcast
1:54 AM 29.8 °F 22.2 °F 22.3 °F 73% 29.95 in 7.0 mi SSW 8.1 mph - N/A Snow Light Snow
2:14 AM 28.8 °F 21.7 °F 25.2 °F 86% 29.95 in 2.5 mi SW 6.9 mph - N/A Snow Light Snow
2:34 AM 28.2 °F 21.0 °F 25.9 °F 91% 29.96 in 1.5 mi SW 6.9 mph - N/A Snow Snow
2:55 AM 27.3 °F 19.1 °F 25.7 °F 94% 29.94 in 1.2 mi SSW 8.1 mph - N/A Snow Light Snow
3:15 AM 27.1 °F 19.7 °F 25.9 °F 95% 29.93 in 1.5 mi South 6.9 mph - N/A Snow Light Snow
3:35 AM 26.8 °F 17.7 °F 25.7 °F 96% 29.92 in 1.8 mi South 9.2 mph - N/A Snow Light Snow
3:55 AM 26.6 °F 16.8 °F 25.7 °F 96% 29.90 in 3.0 mi South 10.4 mph - N/A Snow Light Snow
4:15 AM 26.8 °F 18.5 °F 25.5 °F 95% 29.89 in 7.0 mi South 8.1 mph - N/A Snow Light Snow
4:35 AM 27.1 °F 18.2 °F 25.3 °F 93% 29.89 in 5.0 mi South 9.2 mph - N/A Snow Light Snow
4:50 AM 27.1 °F 18.2 °F 25.3 °F 93% 29.88 in 5.0 mi South 9.2 mph - N/A Snow Light Snow
5:10 AM 27.3 °F 19.9 °F 24.8 °F 90% 29.86 in 4.0 mi South 6.9 mph - N/A Snow Light Snow
5:31 AM 27.1 °F 18.2 °F 25.2 °F 92% 29.87 in 2.0 mi South 9.2 mph - N/A Snow Light Snow
5:51 AM 26.6 °F 16.2 °F 25.5 °F 96% 29.86 in 1.2 mi South 11.5 mph - N/A Snow Snow
6:11 AM 26.8 °F 17.1 °F 25.5 °F 95% 29.85 in 2.0 mi South 10.4 mph - N/A Snow Light Snow
6:31 AM 26.6 °F 16.8 °F 25.3 °F 95% 29.84 in 2.5 mi South 10.4 mph - N/A Snow Light Snow
6:51 AM 26.6 °F 17.5 °F 25.3 °F 95% 29.83 in 4.0 mi South 9.2 mph - N/A Snow Light Snow
7:11 AM 26.6 °F 17.5 °F 25.2 °F 94% 29.84 in 7.0 mi South 9.2 mph - N/A   Overcast
7:31 AM 26.6 °F 17.5 °F 24.8 °F 93% 29.84 in 10.0 mi South 9.2 mph - N/A   Overcast
7:51 AM 27.3 °F 17.7 °F 24.6 °F 90% 29.83 in 10.0 mi South 10.4 mph - N/A   Overcast
8:11 AM 27.5 °F 19.3 °F 24.8 °F 90% 29.83 in 7.0 mi South 8.1 mph - N/A   Overcast
8:32 AM 27.5 °F 18.6 °F 25.2 °F 91% 29.84 in 7.0 mi South 9.2 mph - N/A   Overcast
8:52 AM 27.5 °F 19.3 °F 25.3 °F 92% 29.84 in 5.0 mi SSW 8.1 mph - N/A   Overcast
9:12 AM 27.5 °F 18.6 °F 25.5 °F 92% 29.84 in 7.0 mi South 9.2 mph - N/A   Overcast
9:32 AM 27.9 °F 19.1 °F 25.7 °F 92% 29.83 in 10.0 mi South 9.2 mph - N/A   Overcast
9:52 AM 28.2 °F 19.5 °F 25.7 °F 90% 29.83 in 10.0 mi South 9.2 mph - N/A   Overcast
10:12 AM 28.4 °F 20.4 °F 25.7 °F 90% 29.83 in 10.0 mi South 8.1 mph - N/A   Overcast
10:32 AM 28.8 °F 21.7 °F 25.9 °F 89% 29.83 in 10.0 mi South 6.9 mph - N/A   Overcast
10:53 AM 29.3 °F 21.5 °F 26.2 °F 88% 29.83 in 10.0 mi SSW 8.1 mph - N/A   Overcast
11:13 AM 29.8 °F 23.0 °F 26.2 °F 86% 29.83 in 10.0 mi SSW 6.9 mph - N/A   Overcast
11:33 AM 30.2 °F 26.7 °F 26.4 °F 86% 29.83 in 10.0 mi SW 3.5 mph - N/A   Overcast
11:53 AM 30.9 °F 23.5 °F 26.4 °F 83% 29.82 in 10.0 mi SSW 8.1 mph - N/A   Overcast
12:13 PM 31.1 °F 25.4 °F 26.6 °F 83% 29.82 in 10.0 mi SSW 5.8 mph - N/A   Overcast
12:33 PM 31.6 °F 26.0 °F 27.0 °F 83% 29.82 in 10.0 mi SSW 5.8 mph - N/A   Overcast
12:53 PM 31.8 °F 25.4 °F 26.8 °F 82% 29.82 in 10.0 mi SSW 6.9 mph - N/A   Overcast
1:13 PM 32.0 °F 26.4 °F 27.3 °F 83% 29.81 in 10.0 mi SW 5.8 mph - N/A   Overcast
1:33 PM 32.2 °F 25.8 °F 27.3 °F 82% 29.81 in 10.0 mi SW 6.9 mph - N/A   Overcast
1:54 PM 32.9 °F 28.5 °F 27.9 °F 82% 29.81 in 10.0 mi SSW 4.6 mph - N/A   Overcast
2:14 PM 33.3 °F 27.1 °F 28.2 °F 82% 29.81 in 10.0 mi WSW 6.9 mph - N/A   Overcast
2:34 PM 33.6 °F 28.4 °F 28.2 °F 81% 29.81 in 10.0 mi SW 5.8 mph - N/A   Overcast
2:54 PM 33.8 °F 27.0 °F 28.4 °F 81% 29.82 in 10.0 mi WSW 8.1 mph - N/A   Overcast
3:14 PM 33.8 °F 27.7 °F 28.4 °F 81% 29.81 in 10.0 mi SW 6.9 mph - N/A   Overcast
3:34 PM 33.8 °F 28.6 °F 29.1 °F 83% 29.82 in 10.0 mi SW 5.8 mph - N/A   Overcast
3:54 PM 33.8 °F 27.7 °F 29.1 °F 83% 29.83 in 10.0 mi SW 6.9 mph - N/A   Overcast
4:15 PM 33.8 °F 28.6 °F 29.1 °F 83% 29.84 in 10.0 mi WSW 5.8 mph - N/A   Overcast
4:35 PM 33.8 °F 28.6 °F 29.3 °F 84% 29.84 in 10.0 mi WSW 5.8 mph - N/A   Overcast
4:55 PM 33.8 °F 27.7 °F 29.3 °F 84% 29.85 in 10.0 mi West 6.9 mph - N/A   Overcast
5:15 PM 34.0 °F 25.5 °F 28.9 °F 82% 29.86 in 10.0 mi West 11.5 mph 16.1 mph N/A   Overcast
5:35 PM 34.3 °F 27.0 °F 26.8 °F 74% 29.86 in 10.0 mi WNW 9.2 mph - N/A   Overcast
5:55 PM 33.8 °F 27.0 °F 27.5 °F 78% 29.87 in 10.0 mi West 8.1 mph - N/A   Overcast
6:15 PM 33.8 °F 27.0 °F 27.0 °F 76% 29.88 in 10.0 mi West 8.1 mph - N/A   Overcast
6:35 PM 33.8 °F 27.7 °F 27.1 °F 77% 29.89 in 10.0 mi West 6.9 mph - N/A   Overcast
6:55 PM 34.0 °F 26.0 °F 27.0 °F 75% 29.89 in 10.0 mi West 10.4 mph - N/A   Overcast
7:16 PM 33.8 °F 27.0 °F 26.8 °F 75% 29.90 in 10.0 mi WNW 8.1 mph - N/A   Overcast
7:31 PM 33.3 °F 25.7 °F 27.0 °F 78% 29.91 in 10.0 mi WNW 9.2 mph - N/A   Overcast
7:51 PM 33.4 °F 26.6 °F 26.1 °F 74% 29.92 in 10.0 mi West 8.1 mph 16.1 mph N/A   Overcast
8:11 PM 32.4 °F 23.5 °F 25.2 °F 75% 29.92 in 10.0 mi West 11.5 mph 16.1 mph N/A   Mostly Cloudy
8:31 PM 32.2 °F 24.4 °F 24.6 °F 74% 29.93 in 10.0 mi West 9.2 mph - N/A   Mostly Cloudy
8:51 PM 30.9 °F 25.2 °F 23.9 °F 75% 29.93 in 10.0 mi West 5.8 mph - N/A   Scattered Clouds
9:11 PM 29.3 °F 24.3 °F 23.7 °F 80% 29.93 in 10.0 mi West 4.6 mph - N/A   Clear
9:31 PM 29.3 °F 22.3 °F 23.7 °F 80% 29.94 in 10.0 mi WSW 6.9 mph - N/A   Clear
9:52 PM 28.8 °F 25.0 °F 23.4 °F 80% 29.94 in 10.0 mi West 3.5 mph - N/A   Clear
10:12 PM 29.5 °F 23.4 °F 23.9 °F 80% 29.95 in 10.0 mi WSW 5.8 mph - N/A   Mostly Cloudy
10:32 PM 30.2 °F 24.3 °F 23.9 °F 77% 29.96 in 10.0 mi WSW 5.8 mph - N/A   Overcast
10:52 PM 30.2 °F 25.4 °F 23.5 °F 76% 29.96 in 10.0 mi WSW 4.6 mph - N/A   Mostly Cloudy
11:12 PM 29.3 °F 25.6 °F 23.2 °F 78% 29.96 in 10.0 mi WSW 3.5 mph - N/A   Scattered Clouds
11:32 PM 29.1 °F 24.1 °F 23.0 °F 78% 29.96 in 10.0 mi SSW 4.6 mph - N/A   Scattered Clouds
11:52 PM 29.5 °F 25.9 °F 23.9 °F 80% 29.97 in 10.0 mi SW 3.5 mph - N/A   Mostly Cloudy